Wind_Speed
8 7 6 5 7 7 14 8 3 6 5 4 7 7 10 12 6 6 6 3 10 19 23 24 21 19 19 18 18 22 23 21 18 15 11 10 10 13 14 16 15 15 14 13 12 12 13 14 14
5 6 7 5 8 13 12 12 11 3 2 4 6 9 7 3 6 6 4 4 14 20 22 22 21 19 18 18 18 24 23 21 17 14 11 10 11 13 15 16 15 14 12 12 12 13 13 14 13
8 10 11 6 12 16 14 8 13 6 2 4 5 5 5 6 7 7 5 6 16 19 22 22 21 20 19 18 21 24 23 20 16 13 12 11 12 14 15 15 14 12 12 12 13 13 13 14 12
7 8 7 10 17 16 16 6 6 7 4 2 8 5 4 5 7 6 2 10 17 18 19 22 22 21 20 19 21 23 21 19 16 14 13 12 13 15 15 14 13 12 12 12 12 13 13 13 13
9 7 10 14 21 19 5 11 11 9 9 9 8 7 11 3 5 2 6 11 15 17 17 23 23 21 21 21 21 20 19 18 16 15 14 12 14 16 16 14 13 13 13 12 12 13 13 13 12
11 9 8 16 20 14 10 15 15 14 16 15 13 11 4 5 4 1 7 10 14 17 16 23 23 22 21 21 20 19 18 16 15 14 13 13 15 16 16 15 14 13 13 13 13 13 13 12 11
15 10 14 16 12 12 9 9 14 14 12 13 10 11 3 3 2 3 7 11 14 17 17 19 23 23 21 20 19 18 17 16 14 13 12 13 15 16 16 15 14 13 13 13 13 13 13 12 11
13 8 16 13 13 16 4 9 6 9 10 6 8 7 6 4 2 2 7 11 15 17 16 16 18 23 22 21 20 18 17 16 13 12 12 13 16 17 16 16 15 14 14 14 14 13 13 12 11
9 8 13 17 11 11 4 7 4 3 7 8 10 9 6 5 2 3 7 12 15 16 16 16 17 18 18 17 21 19 18 17 14 13 13 13 15 17 18 17 17 15 14 14 15 14 14 13 13
14 11 14 8 7 8 5 6 7 5 10 12 12 16 13 7 6 5 8 13 16 16 16 16 17 18 18 17 18 21 21 20 18 16 15 16 16 17 16 17 17 16 15 15 15 16 16 16 14
15 14 11 9 10 8 11 8 6 11 12 14 16 15 13 8 8 10 12 12 14 14 15 16 18 18 19 18 18 20 20 21 21 19 17 17 16 15 18 15 19 18 17 16 17 18 19 19 15
11 18 11 9 6 9 9 7 9 10 14 14 15 17 15 13 11 12 12 11 13 13 13 13 15 20 22 18 18 18 18 18 18 19 20 18 17 16 16 16 15 19 16 17 16 14 18 18 19
17 12 11 13 10 10 9 12 10 14 13 15 13 15 16 14 14 13 14 10 10 8 8 9 12 14 21 26 20 18 17 17 16 16 18 18 17 16 16 16 15 16 15 16 16 15 16 17 22
9 17 13 11 12 9 10 10 5 14 13 13 14 15 15 14 14 14 16 15 10 6 5 7 4 10 16 20 25 26 23 18 17 16 16 21 18 17 15 16 15 15 15 15 15 15 15 16 16
9 12 15 16 15 10 11 12 11 10 6 9 12 14 12 12 15 15 17 18 11 5 4 6 6 5 7 15 20 19 20 24 27 22 26 23 24 24 22 17 16 16 16 17 18 17 16 18 16
12 13 14 16 12 9 11 5 7 2 9 11 11 13 12 11 17 17 17 17 18 20 13 8 8 6 10 13 14 18 20 22 20 25 28 29 17 16 24 23 20 18 17 18 17 17 17 17 16
11 12 15 12 11 8 12 4 5 7 5 9 12 13 16 15 14 17 18 19 22 22 22 20 19 17 12 15 15 17 21 21 21 20 23 26 21 19 19 25 24 24 23 20 19 19 20 19 18
13 14 10 10 10 10 11 13 10 7 7 10 12 15 14 16 17 14 16 20 20 18 18 17 25 28 25 15 16 19 24 24 21 23 28 23 25 27 17 25 28 25 24 21 20 20 21 20 18
7 8 10 7 4 8 11 7 9 3 7 8 11 16 16 14 8 8 10 16 14 10 16 11 12 21 21 20 28 22 23 24 21 21 25 28 28 24 27 34 36 28 30 21 21 19 24 20 20
13 13 13 11 10 11 10 10 7 4 2 2 4 11 17 10 6 2 6 9 12 11 20 17 12 14 16 24 27 33 16 15 18 17 17 25 29 23 26 31 31 25 26 26 25 27 25 24 22
15 15 11 11 6 11 9 13 12 10 6 4 4 4 6 9 8 7 8 9 9 7 15 21 21 21 21 21 19 18 16 15 14 12 15 16 18 23 28 31 28 24 24 25 24 25 24 25 30
17 13 15 13 12 13 15 12 16 10 8 4 7 7 10 12 11 10 11 12 12 9 10 12 13 13 15 15 13 12 10 9 11 7 8 10 11 12 16 16 15 15 19 22 24 25 28 26 29
18 15 13 13 15 14 12 9 4 10 10 7 8 10 12 12 11 11 12 13 13 12 12 12 10 10 9 9 7 9 7 6 6 5 8 10 12 13 11 12 13 15 20 22 24 23 26 25 28
13 10 8 9 11 13 17 11 12 12 12 9 10 11 12 12 13 13 14 14 13 13 12 10 9 8 6 5 5 5 6 7 9 11 12 10 12 12 17 20 20 19 20 22 24 26 26 27 26
13 13 9 10 10 11 12 8 14 9 8 10 11 14 14 13 13 12 12 11 10 9 8 6 3 1 2 4 6 9 12 14 16 18 16 20 17 16 16 25 26 27 27 29 28 28 30 30 30
17 17 10 9 9 12 10 9 4 7 5 13 14 14 13 12 11 10 9 8 7 7 6 4 5 8 10 13 16 18 20 21 23 23 29 31 32 33 33 36 37 37 36 34 32 32 32 33 35
12 13 9 8 5 8 8 5 7 8 9 14 16 15 13 10 8 7 6 6 7 7 7 8 9 12 15 18 21 23 25 28 30 33 35 35 37 38 38 41 44 44 43 40 38 34 36 37 39
9 9 8 8 9 12 10 12 6 13 15 15 15 15 13 10 7 5 4 5 6 6 8 11 13 16 19 21 23 24 26 27 28 30 30 30 32 35 37 37 36 36 36 33 33 36 38 39 43
9 12 10 8 8 6 11 5 11 11 17 17 15 14 12 9 6 3 3 4 5 7 9 11 13 16 17 18 20 22 23 23 25 26 26 25 24 26 27 28 29 30 29 28 30 32 35 39 40
10 11 13 8 12 8 10 8 2 1 10 15 15 13 10 7 4 2 3 5 7 9 11 12 13 14 15 16 16 16 17 17 18 20 22 23 25 25 26 27 28 28 28 28 30 32 33 35 39
Wind_Direction
228 225 219 233 243 233 247 239 297 179 186 23 318 293 315 302 331 351 337 191 166 170 174 181 181 182 180 178 181 186 182 180 175 169 162 158 160 165 161 159 155 157 159 157 156 154 147 143 139
209 194 196 226 244 233 232 232 218 174 9 330 307 315 286 47 6 338 335 295 164 170 174 183 183 188 181 180 179 183 181 180 179 176 171 170 170 171 166 165 165 164 164 164 160 154 150 147 145
174 183 228 222 234 243 249 175 240 186 276 345 346 327 2 14 357 342 319 159 159 166 175 187 184 186 180 176 179 178 179 181 184 187 183 180 179 177 173 171 174 171 169 164 158 154 154 155 156
170 188 239 243 239 237 257 212 178 219 210 260 347 290 343 324 330 331 127 149 160 165 169 183 183 184 180 175 174 178 181 185 190 196 193 190 187 182 179 177 175 173 171 164 160 157 157 158 160
187 219 232 237 243 249 202 253 231 263 273 258 318 288 317 4 356 35 151 151 161 165 171 179 182 184 182 179 180 183 188 192 195 199 201 201 193 187 184 181 179 178 175 171 167 165 163 162 163
199 244 228 234 239 235 241 234 250 259 267 273 276 277 295 342 346 158 176 170 170 168 172 182 181 187 186 186 186 189 193 197 199 201 208 208 198 192 189 187 185 185 185 183 179 177 177 179 181
240 219 240 251 259 261 254 224 235 248 255 258 260 264 300 351 348 134 170 175 174 172 169 179 184 187 191 192 192 193 196 199 203 209 215 210 203 199 196 195 194 195 197 198 195 193 193 197 202
238 251 246 244 246 252 186 222 243 251 257 264 241 235 185 6 14 176 168 173 171 174 175 178 181 189 191 195 197 199 198 199 203 213 217 213 206 205 206 206 205 205 208 210 211 211 209 211 216
211 236 238 236 237 248 158 230 190 256 252 243 248 255 273 302 264 193 173 172 171 175 180 181 186 186 185 195 199 200 202 202 205 206 208 210 212 210 212 214 215 214 216 222 225 225 226 226 230
213 226 243 277 256 254 241 240 269 248 251 243 245 246 253 259 237 234 195 186 179 179 184 186 189 190 188 194 201 202 206 208 210 210 208 206 205 211 207 218 222 222 225 227 232 234 238 241 241
212 240 242 243 253 263 274 264 244 243 248 253 249 241 214 231 241 233 213 204 194 190 193 188 201 192 194 197 202 202 207 209 215 215 214 205 204 210 214 216 224 230 232 235 237 236 238 241 243
234 234 251 263 241 244 251 271 251 245 260 259 251 226 228 246 242 225 218 198 193 200 206 214 215 209 206 204 211 212 212 212 211 215 217 211 212 214 213 222 228 231 227 238 234 240 237 242 242
230 248 238 239 242 246 261 264 278 266 257 251 237 222 236 238 239 224 207 185 170 178 201 216 222 226 224 217 212 213 220 225 220 221 223 216 217 218 221 222 226 235 232 236 234 239 245 254 258
197 237 239 240 241 226 238 254 251 262 242 224 220 230 230 236 221 197 189 182 157 144 182 206 226 255 234 227 234 229 221 215 226 224 222 232 226 225 224 231 235 237 241 237 241 245 246 256 258
241 244 235 232 230 222 228 245 232 261 193 214 223 226 221 221 193 183 181 182 182 181 248 288 219 246 302 256 237 237 235 243 243 233 240 236 236 237 242 237 238 240 245 246 243 245 252 256 259
228 231 245 204 186 181 211 216 170 124 209 227 214 209 207 200 195 196 206 219 226 243 240 240 249 242 305 287 249 241 240 237 233 246 244 242 246 260 268 254 248 248 247 250 253 253 252 255 259
208 237 212 163 196 155 214 239 218 210 245 241 230 221 222 218 199 209 216 220 228 236 223 242 255 260 280 297 268 254 246 243 240 239 247 247 239 248 273 284 256 260 266 261 254 249 249 247 250
209 225 219 237 158 210 219 242 252 225 233 243 239 235 223 225 217 219 216 221 230 229 247 244 251 236 250 289 290 278 255 254 244 243 250 246 245 226 262 273 270 258 266 254 246 244 243 243 241
259 236 245 229 193 254 245 275 250 211 233 240 246 241 234 228 241 233 219 219 219 223 218 219 249 234 223 225 281 282 270 253 255 249 245 253 257 254 236 242 254 252 266 266 257 255 252 236 236
232 238 240 249 244 227 242 250 229 219 169 344 310 236 212 200 177 134 171 183 200 204 203 207 212 214 225 213 240 257 259 259 258 256 258 255 251 247 247 250 240 251 260 256 250 247 243 246 243
230 242 244 252 166 226 255 244 216 179 176 111 89 145 158 146 143 127 137 145 146 155 205 213 219 226 233 238 244 242 242 252 259 261 256 253 253 259 260 256 238 256 250 251 253 250 241 250 258
234 219 250 251 226 229 195 249 185 187 170 119 100 108 112 114 122 125 117 114 118 135 186 214 220 216 215 208 208 206 214 224 217 231 230 230 240 253 262 255 252 258 255 254 260 255 250 260 250
237 233 227 243 233 248 193 242 179 164 188 146 115 106 109 115 119 114 109 103 103 121 129 138 144 151 153 167 181 185 183 202 221 235 253 255 260 258 262 275 272 261 253 252 256 255 260 248 249
219 200 213 219 221 226 232 212 231 181 197 150 134 125 125 124 117 111 104 98 93 96 97 111 118 130 140 165 197 219 240 250 253 261 270 271 269 275 269 262 256 248 248 252 252 254 250 249 251
210 213 203 203 209 232 211 195 251 94 135 166 150 137 132 130 122 114 106 95 88 78 85 86 95 34 307 298 290 289 289 292 291 289 288 279 283 278 272 274 270 264 260 257 253 252 251 250 252
202 215 235 229 222 217 155 216 210 95 200 143 149 140 136 132 124 113 99 91 72 52 39 27 339 316 305 300 299 298 296 293 290 286 284 285 285 282 278 276 276 276 274 270 265 263 259 255 253
206 225 258 254 230 261 197 153 150 146 146 155 155 153 144 137 125 107 83 63 42 16 342 328 315 307 301 298 296 294 291 287 286 283 283 282 279 279 279 276 276 275 275 273 271 268 261 256 253
204 243 202 225 239 241 247 226 230 179 177 175 169 165 157 151 137 112 80 43 23 357 342 322 313 307 303 298 294 290 289 290 289 289 289 286 284 282 280 280 279 278 276 274 270 266 266 261 253
176 212 225 241 221 247 261 262 2 190 181 179 178 170 167 160 145 112 56 16 359 347 336 329 320 312 309 305 300 299 299 298 297 296 295 292 290 290 289 287 286 282 280 277 273 269 263 257 256
252 226 217 215 231 250 276 273 47 254 167 182 173 178 172 166 147 95 6 346 341 334 328 323 319 317 312 309 308 307 306 305 303 300 298 296 295 293 290 287 283 281 279 277 275 271 264 262 260
Height
1523 1525 1527 1528 1525 1511 1502 1494 1495 1496 1499 1502 1502 1499 1498 1495 1491 1494 1500 1500 1502 1504 1504 1508 1512 1515 1519 1522 1525 1528 1530 1533 1535 1537 1538 1540 1541 1543 1543 1544 1545 1547 1548 1549 1550 1550 1551 1552 1553
1522 1525 1528 1521 1518 1506 1496 1489 1498 1497 1502 1503 1501 1500 1494 1489 1499 1500 1501 1497 1500 1503 1504 1508 1512 1516 1518 1522 1524 1528 1531 1534 1536 1538 1539 1541 1543 1544 1545 1546 1547 1548 1549 1550 1551 1552 1553 1554 1555
1519 1523 1523 1512 1505 1502 1491 1487 1493 1501 1503 1503 1501 1501 1499 1497 1501 1502 1499 1497 1500 1502 1505 1508 1512 1516 1519 1522 1525 1528 1531 1534 1536 1538 1540 1542 1543 1545 1546 1548 1549 1549 1550 1551 1552 1553 1554 1555 1556
1521 1523 1521 1509 1497 1490 1491 1493 1499 1502 1501 1503 1503 1498 1501 1503 1503 1502 1499 1499 1500 1503 1506 1508 1511 1516 1519 1523 1526 1529 1531 1534 1536 1539 1541 1542 1544 1545 1547 1549 1550 1551 1552 1553 1554 1555 1555 1556 1557
1519 1515 1505 1503 1492 1487 1500 1501 1501 1501 1500 1501 1503 1500 1500 1502 1500 1500 1501 1501 1503 1505 1507 1509 1512 1516 1519 1523 1526 1529 1533 1534 1536 1539 1541 1542 1544 1546 1547 1549 1550 1552 1553 1554 1555 1556 1557 1558 1559
1515 1510 1501 1496 1487 1486 1496 1504 1503 1502 1501 1502 1502 1500 1499 1502 1501 1500 1502 1504 1505 1506 1508 1508 1512 1517 1519 1523 1526 1529 1532 1535 1537 1538 1541 1542 1544 1546 1548 1549 1550 1552 1554 1555 1556 1557 1558 1559 1560
1508 1503 1494 1487 1484 1486 1491 1499 1500 1498 1499 1498 1500 1500 1498 1501 1501 1501 1502 1504 1505 1506 1509 1509 1513 1516 1520 1524 1526 1529 1532 1534 1537 1538 1539 1541 1544 1546 1548 1549 1551 1553 1554 1556 1557 1558 1558 1559 1560
1509 1502 1492 1491 1489 1489 1489 1498 1497 1498 1499 1500 1503 1496 1496 1502 1502 1501 1502 1504 1505 1507 1509 1512 1513 1516 1519 1522 1526 1529 1531 1534 1535 1537 1540 1542 1543 1545 1548 1550 1551 1553 1554 1556 1557 1558 1558 1559 1560
1511 1500 1490 1487 1490 1489 1492 1495 1499 1499 1500 1501 1500 1499 1500 1503 1502 1502 1503 1504 1505 1507 1509 1512 1514 1516 1520 1523 1525 1528 1531 1533 1535 1536 1537 1540 1543 1544 1546 1549 1550 1552 1553 1555 1557 1558 1559 1559 1559
1504 1495 1487 1484 1487 1489 1491 1494 1494 1499 1496 1497 1499 1498 1499 1501 1501 1501 1502 1503 1504 1506 1508 1511 1512 1516 1520 1523 1524 1527 1529 1531 1533 1534 1536 1537 1540 1543 1546 1547 1549 1550 1552 1553 1555 1556 1558 1558 1558
1498 1491 1484 1492 1495 1495 1493 1492 1492 1494 1493 1493 1493 1494 1495 1497 1498 1499 1499 1501 1503 1505 1506 1508 1509 1513 1518 1522 1523 1525 1527 1528 1531 1533 1534 1536 1539 1542 1544 1547 1547 1549 1550 1551 1552 1553 1554 1555 1558
1494 1491 1490 1490 1493 1494 1493 1492 1490 1490 1488 1489 1490 1490 1493 1495 1495 1496 1496 1499 1501 1503 1505 1505 1507 1511 1514 1520 1522 1525 1528 1528 1530 1531 1533 1535 1537 1540 1542 1546 1547 1545 1548 1549 1551 1553 1552 1552 1552
1492 1486 1489 1490 1491 1491 1491 1488 1487 1485 1484 1485 1486 1487 1490 1490 1491 1493 1495 1497 1501 1503 1504 1504 1506 1509 1513 1515 1518 1523 1526 1528 1530 1531 1532 1534 1535 1537 1539 1542 1545 1547 1546 1547 1547 1549 1550 1550 1550
1485 1487 1485 1485 1486 1486 1486 1482 1486 1479 1478 1479 1482 1483 1483 1485 1487 1489 1493 1497 1499 1501 1504 1506 1506 1508 1511 1513 1515 1517 1520 1524 1527 1529 1530 1531 1534 1535 1536 1538 1540 1542 1544 1545 1545 1546 1546 1547 1548
1488 1487 1482 1480 1481 1481 1484 1480 1477 1475 1475 1473 1476 1478 1480 1482 1484 1487 1490 1495 1497 1499 1501 1502 1505 1506 1507 1511 1513 1516 1518 1519 1520 1522 1524 1525 1528 1531 1531 1533 1535 1538 1540 1540 1539 1539 1540 1541 1543
1485 1482 1477 1465 1476 1478 1480 1465 1465 1473 1472 1469 1471 1473 1476 1479 1481 1483 1487 1490 1491 1496 1500 1501 1505 1506 1506 1508 1511 1513 1515 1515 1517 1517 1519 1521 1524 1527 1528 1528 1529 1531 1534 1535 1535 1536 1537 1538 1539
1479 1471 1468 1464 1469 1471 1474 1463 1467 1467 1468 1467 1468 1470 1472 1474 1479 1482 1483 1484 1488 1491 1492 1496 1500 1504 1505 1506 1508 1510 1511 1511 1513 1514 1514 1516 1519 1521 1523 1524 1525 1525 1528 1530 1529 1529 1532 1531 1532
1475 1474 1465 1466 1466 1467 1466 1464 1462 1462 1465 1464 1464 1465 1468 1471 1474 1478 1480 1482 1487 1489 1490 1494 1494 1497 1501 1501 1505 1504 1505 1506 1509 1509 1509 1510 1511 1516 1519 1522 1522 1521 1522 1523 1523 1522 1525 1525 1526
1466 1466 1466 1462 1463 1470 1464 1461 1458 1458 1461 1461 1461 1464 1465 1470 1473 1475 1476 1481 1484 1486 1487 1491 1492 1494 1493 1500 1504 1503 1502 1504 1504 1505 1503 1504 1506 1507 1511 1514 1513 1515 1516 1516 1515 1514 1520 1519 1519
1469 1468 1466 1463 1463 1467 1460 1460 1454 1458 1460 1462 1463 1461 1462 1467 1471 1471 1474 1477 1481 1482 1483 1485 1489 1490 1493 1495 1501 1502 1501 1501 1500 1501 1500 1499 1499 1502 1503 1501 1501 1503 1507 1508 1509 1511 1510 1510 1513
1466 1465 1463 1466 1463 1462 1461 1461 1455 1457 1458 1460 1463 1464 1465 1465 1468 1472 1474 1476 1477 1479 1480 1483 1485 1486 1489 1491 1493 1494 1493 1493 1493 1496 1496 1496 1497 1496 1494 1493 1487 1494 1497 1501 1504 1504 1504 1506 1508
1464 1460 1463 1462 1465 1462 1452 1459 1445 1448 1452 1458 1461 1462 1463 1465 1470 1473 1475 1474 1475 1476 1478 1480 1481 1483 1486 1487 1490 1489 1493 1492 1491 1493 1492 1493 1492 1493 1492 1493 1490 1488 1492 1494 1497 1500 1498 1498 1500
1457 1456 1457 1460 1457 1451 1455 1460 1435 1444 1448 1457 1461 1463 1465 1468 1472 1474 1474 1475 1474 1475 1476 1478 1481 1482 1483 1485 1485 1487 1489 1488 1488 1488 1487 1489 1490 1489 1487 1486 1485 1485 1490 1491 1493 1492 1492 1493 1492
1450 1455 1455 1456 1454 1462 1447 1450 1438 1435 1441 1455 1462 1465 1468 1472 1474 1476 1477 1478 1479 1478 1479 1481 1482 1483 1483 1484 1486 1486 1487 1485 1486 1486 1486 1487 1487 1487 1484 1484 1484 1485 1487 1487 1487 1487 1487 1486 1484
1447 1450 1454 1461 1457 1453 1431 1445 1438 1437 1443 1451 1460 1467 1471 1473 1475 1477 1478 1479 1481 1482 1481 1482 1482 1483 1484 1484 1484 1484 1483 1483 1482 1482 1482 1482 1481 1483 1481 1479 1478 1477 1477 1477 1477 1478 1476 1476 1475
1440 1439 1441 1457 1446 1441 1439 1450 1438 1443 1449 1453 1462 1467 1472 1474 1476 1477 1478 1479 1481 1481 1480 1479 1480 1481 1481 1481 1481 1480 1480 1479 1479 1479 1475 1474 1474 1474 1472 1471 1469 1469 1467 1466 1466 1465 1465 1466 1464
1435 1438 1429 1441 1443 1446 1442 1438 1446 1450 1454 1460 1464 1468 1472 1475 1477 1478 1478 1478 1477 1478 1478 1477 1478 1479 1479 1478 1477 1476 1475 1474 1472 1471 1469 1468 1466 1465 1462 1459 1456 1457 1457 1456 1454 1454 1453 1454 1454
1434 1433 1446 1440 1462 1464 1441 1435 1440 1448 1451 1457 1463 1466 1472 1475 1477 1478 1479 1478 1478 1479 1479 1477 1476 1475 1474 1473 1472 1471 1469 1467 1465 1463 1461 1459 1457 1455 1451 1450 1448 1445 1445 1444 1442 1442 1442 1441 1441
1434 1436 1437 1439 1451 1457 1453 1440 1438 1434 1442 1452 1460 1466 1471 1474 1476 1478 1479 1479 1479 1479 1478 1475 1473 1472 1470 1468 1466 1464 1463 1460 1458 1456 1454 1453 1451 1447 1443 1441 1437 1437 1436 1433 1431 1429 1429 1428 1428
1424 1426 1430 1447 1451 1444 1441 1441 1445 1442 1442 1452 1459 1468 1471 1473 1475 1476 1478 1478 1477 1477 1475 1473 1471 1469 1468 1465 1463 1461 1459 1457 1455 1452 1450 1447 1443 1440 1437 1434 1432 1429 1426 1423 1420 1419 1419 1417 1415